Powrót do katalogu

STARLINK-36703

AktywnyŁącznośćSSO
NORAD 67650·PAYLOAD·🇺🇸 United States

Wystrzelony Feb 2, 2026 z Vandenberg Space Force Base

Loading…

Następne Przeloty (najbliższe 24 godziny)

TLE

ŚwieżeSource: CelesTrak SupGP

Epoka: Sep 14, 2026, 23:12 UTC

1 67650C 26022C   26257.96715278  .00058437  00000+0  18143-2 0  2575
2 67650  97.2839 289.6109 0001074 104.7510  99.8358 15.33404624    14

Śledź STARLINK-36703 w czasie rzeczywistym z AllMySat

Download on the App Store